This is the latest recevied weather packets stored in our database for station/object K9COE-11. If no packets are shown the sender has not sent any weather packets the latest 10 day(s).
| Time | Temp. | Humidity | Pressure | Rain* | Wind** | Luminosity | Snow |
|---|---|---|---|---|---|---|---|
| 1777914412 | 16.67° C | 54% | - | 0 mm | - | - | - |
| 1777913781 | 16.67° C | 57% | - | 0 mm | - | - | - |
| 1777912765 | 16.11° C | 56% | - | 0 mm | - | - | - |
| 1777912387 | 16.11° C | 59% | - | 0 mm | - | - | - |
| 1777912257 | 16.11° C | 57% | - | 0 mm | - | - | - |
| 1777911498 | 16.67° C | 58% | - | 0 mm | - | - | - |
| 1777910857 | 15° C | 60% | - | 0 mm | - | - | - |
| 1777910606 | 15.56° C | 60% | - | 0 mm | - | - | - |
| 1777910475 | 15.56° C | 60% | - | 0 mm | - | - | - |
| 1777910227 | 15° C | 61% | - | 0 mm | - | - | - |
| 1777909846 | 15° C | 61% | - | 0 mm | - | - | - |
| 1777909467 | 15° C | 68% | - | 0 mm | - | - | - |
| 1777909337 | 15.56° C | 68% | - | 0 mm | - | - | - |
| 1777909208 | 15° C | 68% | - | 0 mm | - | - | - |
| 1777908824 | 14.44° C | 69% | - | 0 mm | - | - | - |
| 1777908698 | 14.44° C | 69% | - | 0 mm | - | - | - |
| 1777908445 | 14.44° C | 71% | - | 0 mm | - | - | - |
| 1777907934 | 13.89° C | 73% | - | 0 mm | - | - | - |
| 1777907552 | 13.89° C | 75% | - | 0 mm | - | - | - |
| 1777907425 | 13.33° C | 76% | - | 0 mm | - | - | - |
| 1777907292 | 13.33° C | 76% | - | 0 mm | - | - | - |
| 1777907163 | 13.33° C | 76% | - | 0 mm | - | - | - |
| 1777906652 | 13.33° C | 77% | - | 0 mm | - | - | - |
| 1777906279 | 13.33° C | 79% | - | 0 mm | - | - | - |
| 1777906149 | 12.78° C | 79% | - | 0 mm | - | - | - |
* Rain latest 24 hours (hover to see other rain measurements)
** Current wind speed in m/s (hover to see current wind gust speed)